Location: Acton
(51.4942°N, 0.2232°W)
Time: 16:31:57
(UTC+00:00)

CENTAUR R/B - Pass Details

Date: 18 September 2020
Orbit: 753 x 1435 km, 63.5° (Epoch: 26 October)

Event Time Altitude Azimuth Distance (km) Brightness Sun altitude
Rises 19:21:41 0° 312° (NW) 4,004 7.0 -12.2°
Reaches altitude 10° 19:24:17 10° 315° (NW) 3,132 6.2 -12.5°
Maximum altitude 19:31:58 65° 38° (NE) 1,437 3.3 -13.7°
Enters shadow 19:38:32 19° 116° (ESE) 2,843 4.3 -14.6°
